Regional Weather Roundup
Issued by NWS

Home | Current Version | Previous Version | Text Only | Print | Product List | Glossary Off
Versions: 1 2 3 4 5 6 7 8 9 10 11 12 13 14 15 16 17 18 19 20 21 22 23 24 25 26 27 28 29 30 31 32 33 34 35 36 37 38 39 40 41 42 43 44 45 46 47 48 49 50

000
ASUS43 KDTX 171910
RWRMI
MICHIGAN HOURLY REGIONAL WEATHER ROUNDUP
NATIONAL WEATHER SERVICE DETROIT/PONTIAC MI
200 PM EST SAT FEB 17 2018

NOTE: "FAIR" INDICATES FEW OR NO CLOUDS BELOW 12,000 FEET WITH NO
SIGNIFICANT WEATHER AND/OR OBSTRUCTION TO VISIBILITY.

MIZ047>049-052>055-059>063-066>070-074>076-081>083-172000-
SOUTHEAST LOWER MICHIGAN

CITY           SKY/WX    TMP DP  RH WIND       PRES   REMARKS
ADRIAN         FAIR      31  23  72 SW8       30.02F WCI  23
ALMA           FAIR      31  13  47 S9        29.99F WCI  23
ANN ARBOR      FAIR      31  23  72 S7        30.01F WCI  24
BAD AXE        FAIR      31  16  52 SW17      29.98F WCI  20
CARO           FAIR      32  17  52 SW14G20   29.99F WCI  22
DETROIT CITY   PTSUNNY   33  22  63 SW9       30.03F WCI  25
DETROIT        CLOUDY    32  23  69 S8        30.04F WCI  25
FLINT          FAIR      31  22  69 SW15      30.00F WCI  20
GROSSE ILE     FAIR      31  26  78 S8        30.05F WCI  24
HILLSDALE      FAIR      32  23  69 SW10      29.98F WCI  24
HOWELL         FAIR      32  24  72 SW9       29.99F WCI  24

CITY           SKY/WX    TMP DP  RH WIND       PRES   REMARKS
JACKSON        FAIR      32  23  69 S10       29.99F WCI  24
LAMBERTVILLE   PTSUNNY   32  24  71 SW3       30.03F
LANSING        FAIR      32  24  72 SW12      30.00F WCI  23
LAPEER         FAIR      32  20  60 SW8       30.00F WCI  25
MASON          FAIR      33  21  62 SW8       30.00F WCI  26
MONROE         FAIR      32  22  67 SW3       30.04F
MT. CLEMENS    CLOUDY    33  23  67 SW15      30.02F WCI  23
PONTIAC        PTSUNNY   31  21  66 S9        29.98F WCI  23
PORT HOPE        N/A     31  14  49 SW9       29.96F WCI  23
PORT HURON     FAIR      30  21  69 S13       30.03F WCI  20
TRI CITIES     FAIR      31   8  38 SW17      29.98F WCI  19
MIDLAND        FAIR      32  12  43 SW8       29.97F WCI  25
TROY           FAIR      33  22  64 S8        30.04F WCI  26
SAGINAW HB     FAIR      32  18  55 SW13G20   29.99F WCI  22
$$
MIZ043>046-050>051-056>058-064>065-071>073-077>080-172000-
SOUTHWEST LOWER MICHIGAN

CITY           SKY/WX    TMP DP  RH WIND       PRES   REMARKS
BATTLE CREEK   FAIR      32  24  72 S14       29.99F WCI  22
BENTON HARBOR  CLOUDY    34  23  64 S10       29.99F WCI  26
BIG RAPIDS     CLOUDY    29  14  53 SW10      29.94F WCI  20
COLDWATER      FAIR      32  24  71 SW5       29.99F WCI  28
FREMONT        FAIR      31  18  57 SW9G16    29.96F WCI  23
HOLLAND        FAIR      34  24  67 SW14      29.99F WCI  25
GRAND RAPIDS   CLOUDY    32  20  61 SW10      29.99F WCI  24
IONIA          FAIR      34  21  60 SW14      29.98F WCI  24
KALAMAZOO      FAIR      33  23  66 S12       29.99F WCI  24
LUDINGTON      CLOUDY    31  19  60 SW15G21   29.94F WCI  20
MARSHALL       FAIR      32  22  68 SW8       29.99F WCI  25
MOUNT PLEASANT FAIR      32   8  37 SW12      29.97F WCI  23
MUSKEGON       CLOUDY    32  24  72 SW12      29.97F WCI  23
SOUTH HAVEN    PTSUNNY   36  23  61 SW12G22   29.99F WCI  27
$$
MIZ016>042-172000-
NORTHERN LOWER MICHIGAN

CITY           SKY/WX    TMP DP  RH WIND       PRES   REMARKS
ALPENA         FAIR      34  11  38 SW13      29.90F WCI  25
BEAVER ISLAND  CLOUDY    31  19  60 SW22G29   29.84F WCI  18
BELLAIRE       PTSUNNY   33  14  46 SW13G21   29.89F WCI  24
CADILLAC       FAIR      29  13  50 SW20      29.88F WCI  16
CHARLEVOIX     PTSUNNY   33  17  50 SW17G23   29.89F WCI  22
FRANKFORT      PTSUNNY   32  20  60 SW13      29.90F WCI  23
GAYLORD        FAIR      29  11  47 SW16G24   29.84F WCI  17
GRAYLING       FAIR      30   9  41 SW12G20   29.87F WCI  21
HARBOR SPRINGS FAIR      32  15  49 SW14G21   29.85F WCI  22
HOUGHTON LAKE  CLOUDY    29  12  49 SW12      29.90F WCI  19
MANISTEE       CLOUDY    32  16  51 S13G20    29.92F WCI  22
OSCODA         FAIR      32  14  47 SW16G22   29.93F WCI  21
PELLSTON       FAIR      31  13  47 SW18G31   29.85F WCI  19
ROGERS CITY    FAIR      32   9  37 SW12G18   29.87F WCI  23
TRAVERSE CITY  PTSUNNY   34  11  38 SW13G21   29.88F WCI  25
$$
MIZ007>008-015-172000-
EASTERN UPPER MICHIGAN

CITY           SKY/WX    TMP DP  RH WIND       PRES   REMARKS
KINROSS        CLOUDY    30  19  63 SW13G26   29.81F WCI  20
MACKINAC ISLAN FAIR      30  17  56 SW18G29   29.83F WCI  18
NEWBERRY       LGT SNOW  25  19  79 SW17      29.78F WCI  11
S. S. MARIE    PTSUNNY   32  19  58 SW20G26   29.80F WCI  20
MUNISING         N/A     28  12  51 S14G20    29.75F WCI  17
$$
MIZ004>006-011>014-085-172000-
CENTRAL UPPER MICHIGAN

CITY           SKY/WX    TMP DP  RH WIND       PRES   REMARKS
MANISTIQUE     CLOUDY    25  10  53 SW12G20   29.82F WCI  14
ESCANABA       CLOUDY    27  13  55 SW12      29.82F WCI  17
MENOMINEE      LGT SNOW  25  19  78 W8        29.87F WCI  16
SAWYER-GWINN   SUNNY     27  14  59 SW13      29.74F WCI  16
$$
MIZ001>003-009>011-084-172000-
WESTERN UPPER MICHIGAN

CITY           SKY/WX    TMP DP  RH WIND       PRES   REMARKS
IRON MOUNTAIN  PTSUNNY   28  16  60 SW13      29.76F WCI  17
HOUGHTON       CLOUDY    25  16  68 W17G31    29.70F WCI  12
COPPER HARBOR    N/A     26  16  65 W10G21    29.72F WCI  16
IRONWOOD       FAIR      31  16  54 W21       29.73F WCI  18
$$

ABBREVIATIONS USED IN REMARKS
   TC - TEMPERATURE IN CELSIUS
  WCI - WIND CHILL INDEX
   HX - HEAT INDEX
  VSB - VISIBILITY





USA.gov is the U.S. government's official web portal to all federal, state and local government web resources and services.